Regional Weather Roundup
Issued by NWS

Home | Current Version | Previous Version | Text Only | Print | Product List | Glossary Off
Versions: 1 2 3 4 5 6 7 8 9 10 11 12 13 14 15 16 17 18 19 20 21 22 23 24 25 26 27 28 29 30 31 32 33 34 35 36 37 38 39 40 41 42 43 44 45 46 47 48 49 50

000
ASUS43 KIND 200459
RWRIN

WEATHER ROUNDUP FOR INDIANA
NATIONAL WEATHER SERVICE INDIANAPOLIS IN
1200 AM EST TUE FEB 20 2018

NOTE: "FAIR" INDICATES FEW OR NO CLOUDS BELOW 12,000 FEET WITH NO
SIGNIFICANT WEATHER AND/OR OBSTRUCTIONS TO VISIBILITY.

* - STATION DOES NOT REPORT WEATHER SUCH AS PRECIPITATION OR FOG.

+ - STATION NOT QUALITY CONTROLLED BY THE NATIONAL WEATHER SERVICE.
    USE DATA WITH CAUTION...ESPECIALLY DEWPOINT AND RELATIVE
    HUMIDITY OBSERVATIONS.

INZ001>003-010>013-019-020-200600-
NORTHWEST INDIANA

CITY           SKY/WX    TMP DP  RH WIND       PRES   REMARKS
MONTICELLO +   CLOUDY    62  55  79 S15G23    29.89F
RENSSELAER +   CLOUDY    61  54  77 S16G24    29.87S

$$

LMZ046-743>745-200600-
SOUTHERN LAKE MICHIGAN

STATION/POSITION TIME  TEMP    WIND        PRES    WAVE
                       AIR SEA DIR/SP/G            HT
                 (UTC) (F)     (DEG/KT/KT) (MB)    (FT)
BURNS HARBOR     0440   58     190/ 14/ 19 1011.9S
MICHIGAN CITY    0430   59     180/ 21/ 24   N/A

$$

INZ004-005-014>016-021>024-200600-
NORTH CENTRAL INDIANA

CITY           SKY/WX    TMP DP  RH WIND       PRES   REMARKS
GOSHEN         LGT RAIN  55  54  96 N7        29.92F FOG
PERU/GRISSOM   CLOUDY    61  61 100 S16G23    29.92F
SOUTH BEND     RAIN      57  56  96 S15       29.91F FOG
WARSAW +       CLOUDY    59  55  88 S6        29.92S

$$

INZ006>009-017-018-025>027-200600-
NORTHEAST INDIANA

CITY           SKY/WX    TMP DP  RH WIND       PRES   REMARKS
AUBURN +       CLOUDY    59  55  88 S6        29.96S
FORT WAYNE     CLOUDY    60  55  83 S16       29.95F
KENDALLVILLE + CLOUDY    58  57  99 S6        29.94F

$$

INZ028-029-035-036-043>045-051>053-200600-
WEST CENTRAL INDIANA

CITY           SKY/WX    TMP DP  RH WIND       PRES   REMARKS
GREENCASTLE +  MOCLDY    64  54  68 S13G21    29.99S
LAFAYETTE      CLOUDY    62  56  80 S15G25    29.90F
TERRE HAUTE    CLOUDY    64  56  75 S17       29.98R

$$

INZ030>032-037>040-046>048-054>057-064-065-200600-
CENTRAL INDIANA

CITY           SKY/WX    TMP DP  RH WIND       PRES   REMARKS
GREENWOOD *+   FAIR      60 -47   1 S10       30.02R
INDIANAPOLIS   MOCLDY    64  55  72 S17       29.99S
-EAGLE CREEK   FAIR      65  54  67 S14G20    29.98S
KOKOMO +       CLOUDY    60  55  83 S15       29.95F
MT COMFORT *+  FAIR      61  55  82 S10       30.01S
SHELBYVILLE    FAIR      62  53  72 S14       30.02R

$$

INZ033-034-041-042-049-050-058-059-200600-
EAST CENTRAL INDIANA

CITY           SKY/WX    TMP DP  RH WIND       PRES   REMARKS
MUNCIE         FAIR      64  54  69 S16G24    29.98F
RICHMOND +     FAIR      55  54  94 S15       30.06S

$$

INZ060-061-067>069-081>083-085>088-200600-
SOUTHWEST INDIANA

CITY           SKY/WX    TMP DP  RH WIND       PRES   REMARKS
EVANSVILLE     FAIR      66  58  75 S13       30.03S
HUNTINGBURG +  FAIR      65  57  75 S14       30.05S

$$

INZ062-063-066-070>080-084-089>092-200600-
SOUTH CENTRAL AND SOUTHEAST INDIANA

CITY           SKY/WX    TMP DP  RH WIND       PRES   REMARKS
BLOOMINGTON    FAIR      66  56  70 S18G26    30.02R
FRENCH LICK *+ FAIR      64  52  63 S9G17     30.06R
SEYMOUR +      FAIR      66  54  63 S14G20    30.06R

$$





USA.gov is the U.S. government's official web portal to all federal, state and local government web resources and services.